SCP
1 1 1 1 1 1 1 1 2 2 2 2 2 2 2 2 3 3 2 1 1 1 1 1 1 0 1 1 1 1 0 0 0 0 0 0 0 0 0 0 0 0 0
2 1 1 1 1 1 1 1 1 2 2 2 2 2 2 2 2 2 2 1 1 1 1 1 0 0 0 0 1 1 1 0 0 0 0 0 0 0 0 0 0 0 0
2 2 1 1 1 1 1 1 1 1 2 2 2 2 2 2 2 2 1 1 1 0 0 0 0 0 0 0 0 0 0 1 1 1 0 0 0 0 0 0 0 0 0
2 2 2 1 1 1 1 1 1 1 1 2 2 1 1 1 1 1 1 1 0 0 0 0 0 0 0 0 0 0 0 0 1 1 1 1 0 0 0 0 0 0 0
2 2 1 1 1 1 1 1 1 1 1 1 1 1 1 1 1 1 1 1 1 0 0 0 0 0 0 0 0 0 0 0 0 1 1 1 1 0 0 0 0 0 0
2 1 1 2 1 1 1 1 1 1 1 1 1 1 1 1 1 1 1 1 1 0 0 0 0 0 0 0 0 0 0 0 0 0 1 1 1 0 0 0 0 0 0
1 1 1 2 2 2 1 1 1 1 1 1 1 1 1 0 0 0 0 1 1 1 0 0 0 0 0 0 0 0 0 0 0 0 0 0 1 1 0 0 0 0 0
1 1 1 2 2 2 2 1 1 1 1 1 1 0 0 0 0 0 0 0 1 1 1 0 0 0 0 0 0 0 0 0 0 0 0 0 0 0 0 0 0 0 0
1 1 2 2 2 2 2 2 1 1 1 1 1 0 0 0 0 0 0 0 0 0 0 0 0 0 0 0 0 0 0 0 0 0 0 0 0 0 0 0 0 0 0
1 1 2 2 3 2 2 2 1 1 1 1 1 1 1 0 0 0 0 0 0 0 0 0 0 0 0 0 0 0 0 0 0 0 0 0 0 0 0 0 0 0 0
0 1 1 2 3 3 2 2 2 1 1 1 0 1 1 0 0 0 0 0 0 0 0 0 0 0 0 0 0 0 0 0 0 0 0 0 0 0 0 0 0 0 0
0 0 0 1 1 2 2 2 2 2 1 1 1 0 0 0 0 0 0 0 0 0 0 0 0 0 0 0 0 0 0 0 0 0 0 0 0 0 0 0 0 0 0
0 0 0 0 0 1 1 2 2 2 2 1 1 0 0 0 0 0 0 0 0 0 0 0 0 0 0 0 0 0 0 0 0 0 0 0 0 0 0 0 0 0 0
0 0 0 0 0 0 0 1 1 1 1 1 1 1 0 0 0 0 0 0 0 0 0 0 0 0 0 0 0 0 0 0 0 0 0 0 0 0 0 0 0 0 0
1 1 0 0 0 0 0 0 0 0 0 1 1 1 0 0 0 0 0 0 0 0 0 0 0 0 0 0 0 0 0 0 0 0 0 0 0 0 0 0 0 0 0
1 1 1 0 0 0 0 0 0 0 0 0 0 0 0 0 0 0 0 0 0 0 0 0 0 0 0 0 0 0 0 0 0 0 0 0 0 0 0 0 0 0 0
1 1 0 0 0 0 0 0 0 0 0 0 0 0 0 0 0 0 0 0 0 0 0 0 0 0 0 0 0 0 0 0 0 0 0 0 0 0 0 0 0 0 0
1 1 0 0 0 0 0 0 0 0 0 0 0 0 0 0 0 0 0 0 0 0 0 0 0 0 0 0 0 0 0 0 0 0 0 0 0 0 0 0 0 0 0
0 0 0 0 0 0 0 0 0 0 0 0 0 0 0 0 0 0 0 0 0 0 0 0 0 0 0 0 0 0 0 0 0 0 0 0 0 0 0 0 0 0 0
0 0 0 0 0 0 0 0 0 0 0 0 0 0 0 0 0 0 0 0 0 0 0 0 0 0 0 0 0 0 0 0 0 0 0 0 0 0 0 0 0 0 0
0 0 0 0 0 0 0 0 0 0 0 0 0 0 0 0 0 0 0 0 0 0 0 0 0 0 0 0 0 0 0 0 0 0 0 0 0 0 0 0 0 0 0
0 0 0 0 0 0 0 0 0 0 0 0 0 0 0 0 0 0 0 0 0 0 0 0 0 0 0 0 0 0 0 0 0 0 0 0 0 0 0 0 0 0 0
0 0 0 0 0 0 0 0 0 0 0 0 0 0 0 0 0 0 0 0 0 0 0 0 0 0 0 0 0 0 0 0 0 0 0 0 0 0 0 0 0 0 0
0 0 0 0 -0 -0 -0 -0 0 0 0 0 0 0 0 0 0 0 0 0 0 0 0 0 0 0 0 0 0 0 0 0 0 0 0 0 0 0 0 0 0 0 0
0 0 0 0 0 0 0 0 0 0 0 0 0 0 0 0 0 0 0 0 0 0 0 0 0 0 0 0 0 0 0 0 0 0 0 0 0 0 0 0 0 0 0
0 0 0 0 0 0 0 0 0 0 0 0 0 0 0 0 0 0 0 0 0 0 0 0 0 0 0 0 0 0 0 0 0 0 0 0 0 0 0 0 0 0 0
Wind_Speed
2 2 2 2 2 2 2 2 2 2 3 4 5 5 5 5 5 5 4 5 5 4 4 4 4 3 2 2 1 1 2 3 3 2 1 1 0 0 1 1 2 3 4
3 3 2 2 2 2 1 1 1 2 2 3 3 4 4 4 5 5 5 4 4 4 4 3 3 2 2 1 1 2 2 2 3 2 1 1 1 0 0 0 1 2 2
3 3 3 2 2 2 1 1 2 2 1 1 2 3 4 4 4 4 4 3 3 3 3 3 2 2 2 1 1 1 1 1 2 2 1 1 1 1 1 1 1 1 1
4 3 3 3 3 2 2 2 2 2 2 1 1 2 2 3 3 4 4 3 3 2 2 2 2 3 2 2 1 1 2 2 2 2 1 1 1 1 1 1 2 2 2
4 4 3 3 3 3 3 3 3 3 3 3 3 2 2 2 3 4 4 4 4 3 3 3 3 3 3 2 2 2 2 2 2 2 1 1 1 1 0 0 0 1 2
5 4 4 4 3 3 3 3 3 3 3 4 4 4 4 3 5 6 5 4 4 5 4 4 4 4 5 5 4 4 3 3 3 2 1 2 1 1 1 0 0 1 1
5 5 4 4 4 4 4 4 4 4 4 5 5 5 5 6 8 8 8 5 5 5 4 4 4 4 5 4 6 7 7 6 4 3 3 2 1 1 0 1 1 1 0
5 5 4 4 4 4 4 4 4 4 4 4 5 5 5 6 8 8 9 7 7 6 5 4 5 4 4 5 6 7 7 6 5 4 4 2 2 1 1 1 1 1 1
5 5 4 4 4 4 5 4 4 5 5 5 5 5 6 5 7 8 8 6 7 7 6 6 5 5 7 7 7 7 6 5 8 9 8 7 8 7 4 3 3 2 2
4 4 4 4 4 4 4 4 4 5 5 6 6 6 6 5 6 8 8 5 6 6 6 6 9 8 8 7 6 6 6 4 4 6 7 7 6 7 8 4 2 2 1
4 5 5 4 4 5 5 4 5 5 6 7 7 7 7 7 7 8 7 5 5 6 5 4 5 10 10 9 7 6 6 5 4 5 4 4 4 4 5 4 3 3 2
6 6 6 5 5 5 5 5 5 6 7 7 7 7 6 7 8 9 10 9 8 7 5 4 5 10 11 11 8 9 9 7 4 4 4 4 3 3 3 3 4 3 2
7 7 6 7 6 5 5 5 5 5 5 5 5 5 5 5 7 11 11 11 10 6 5 8 9 10 9 8 11 10 7 5 4 4 4 3 2 2 3 3 4 4 4
8 6 6 7 7 7 6 5 5 4 4 4 4 5 4 4 4 4 4 6 8 7 6 8 10 11 9 8 8 7 5 5 4 3 2 2 2 3 3 3 3 3 3
8 7 6 6 7 8 8 7 6 5 3 5 4 4 5 4 3 4 4 4 4 4 5 5 5 5 6 5 5 5 5 5 5 3 3 3 3 3 3 3 2 2 2
7 6 5 5 6 6 7 8 14 11 13 12 9 7 6 6 8 10 11 11 10 9 8 5 5 5 5 4 4 4 4 4 3 3 3 3 3 3 3 3 3 2 2
7 6 5 5 6 5 5 7 7 9 14 14 12 11 10 10 11 11 12 12 11 10 7 5 4 4 4 4 3 3 3 3 3 3 3 3 3 2 2 3 2 2 2
7 8 7 5 5 5 5 5 5 6 6 5 8 10 11 11 11 11 11 10 8 7 5 5 4 4 3 3 3 3 3 3 3 4 4 3 3 3 3 3 3 3 2
6 5 5 5 5 5 5 5 5 6 6 5 4 6 8 10 11 11 9 6 5 4 4 4 4 3 3 3 2 3 3 3 3 3 3 3 3 3 3 3 3 4 3
6 10 8 6 5 5 5 5 5 5 5 4 4 3 3 5 5 5 5 5 5 4 4 4 3 3 3 3 2 3 3 3 3 3 3 3 3 2 2 3 3 2 2
5 7 10 7 5 5 5 5 4 4 4 4 3 3 5 5 4 4 4 4 4 4 4 4 3 3 3 3 3 3 4 3 3 3 3 3 3 3 2 2 2 3 3
5 5 5 6 5 5 5 4 4 4 5 5 3 4 6 5 4 3 3 3 3 3 3 4 4 3 3 3 3 3 3 3 3 3 3 3 3 3 3 2 3 3 3
6 6 6 5 5 7 6 4 4 4 4 4 4 3 3 3 3 3 3 3 3 3 3 4 4 3 3 2 2 2 2 1 2 2 2 3 3 3 2 2 3 3 3
5 6 6 5 5 4 4 4 4 4 4 4 3 3 3 3 3 3 3 3 3 3 3 3 3 4 4 2 2 1 1 1 2 1 2 2 2 3 2 3 3 3 3
4 5 5 5 5 4 4 4 4 4 4 4 3 3 3 3 3 3 3 3 3 3 3 3 2 3 3 3 2 1 2 3 3 2 1 1 2 3 3 3 3 3 3
5 5 5 4 4 4 4 4 4 4 3 3 3 3 3 3 3 3 3 3 3 3 3 2 3 3 3 2 1 1 2 4 4 4 2 1 2 3 3 2 3 3 3
Wind_Direction
153 153 148 160 172 167 175 198 204 201 188 187 188 186 190 189 183 179 185 188 195 208 208 194 207 203 196 199 173 155 173 170 203 256 269 305 79 231 167 212 217 211 222
139 138 145 146 138 143 176 193 180 184 187 192 184 181 187 184 178 176 186 186 192 208 211 193 208 202 193 196 173 173 184 185 182 208 284 358 10 283 133 155 242 216 225
131 131 121 113 117 115 120 131 139 148 156 161 163 176 183 183 176 170 168 163 174 196 189 180 192 168 183 192 179 182 187 156 138 150 174 4 357 18 42 11 8 341 275
120 116 112 111 112 102 87 88 98 113 114 111 124 163 176 175 170 161 151 145 145 149 142 151 158 162 182 190 188 184 153 127 121 127 129 51 3 350 47 23 357 349 353
116 112 110 102 97 86 76 82 81 85 94 90 82 80 105 144 167 160 155 147 139 120 99 100 110 113 118 147 174 177 155 139 129 130 131 95 26 17 348 315 330 329 356
112 105 99 96 91 84 82 89 86 82 82 85 80 76 78 87 103 117 124 128 124 117 104 89 83 78 78 76 86 109 129 147 157 147 151 154 203 229 263 88 121 47 336
102 101 96 95 91 84 88 96 95 90 85 83 81 79 79 76 89 99 100 105 102 103 104 97 86 76 73 79 75 73 68 72 112 146 143 173 181 247 177 70 70 94 259
96 94 95 96 87 78 75 88 98 94 91 89 85 86 87 77 84 93 94 90 87 84 86 91 91 73 66 85 89 78 66 56 68 82 100 89 76 48 95 144 147 110 39
92 88 84 91 92 85 80 79 95 99 92 87 86 86 86 74 80 93 96 91 86 75 68 65 75 75 65 79 90 91 80 62 66 75 77 68 60 54 56 68 59 75 45
94 92 86 85 90 91 93 88 85 94 95 90 79 72 78 75 76 93 99 101 96 86 69 58 61 71 70 73 89 96 90 71 68 63 54 44 42 40 46 61 83 90 90
95 91 82 78 84 92 90 87 90 90 87 82 78 67 63 62 64 76 91 98 106 98 82 62 53 66 69 68 75 83 91 89 74 72 60 45 36 32 29 33 51 86 94
91 85 79 73 80 84 88 85 86 92 93 88 84 72 56 49 55 65 75 80 89 96 90 74 66 69 67 67 72 79 82 78 71 66 57 41 32 24 17 22 34 54 90
93 85 80 74 67 66 75 80 83 89 96 94 89 83 67 54 52 61 70 77 81 87 85 83 76 70 65 62 61 65 68 69 68 65 54 28 6 5 18 21 20 31 30
98 89 83 83 72 60 57 59 71 78 94 100 98 93 80 61 48 50 65 75 76 80 77 72 68 64 63 55 50 50 52 62 76 72 55 22 18 26 27 27 29 23 30
101 97 90 86 87 77 65 52 58 48 86 108 107 108 104 85 47 70 91 89 92 95 91 69 61 59 58 51 46 43 42 46 51 44 47 41 32 30 16 13 34 41 43
108 105 101 99 95 93 91 74 55 62 65 72 83 93 83 90 87 78 77 81 85 90 84 75 69 67 69 63 57 45 38 37 36 43 42 37 33 28 17 12 23 37 30
113 113 111 109 107 105 101 99 88 60 57 61 68 76 83 85 82 83 81 77 73 78 79 77 75 72 69 65 59 55 40 24 31 41 40 29 25 25 25 17 9 13 10
107 110 113 112 111 106 102 99 100 102 86 59 51 65 73 77 78 81 82 79 65 59 73 78 75 72 69 66 61 52 39 31 34 34 31 26 24 26 23 15 10 10 3
106 108 106 105 104 105 104 100 96 97 96 91 76 61 65 72 67 67 75 79 84 76 73 72 72 73 70 65 61 55 50 43 33 31 23 16 14 21 16 9 7 7 11
106 115 113 108 104 101 101 102 102 100 96 91 87 81 67 70 67 57 60 71 77 77 76 77 71 71 69 63 56 53 50 39 29 25 12 5 4 13 9 4 5 2 349
103 112 114 109 105 105 104 104 105 104 101 95 87 88 99 93 89 84 77 77 83 87 84 81 74 68 61 58 57 55 53 36 24 16 7 358 357 359 355 358 356 356 346
101 100 104 110 109 107 109 107 105 104 105 102 92 80 85 85 85 83 81 77 77 83 93 96 87 74 71 71 71 62 48 28 7 358 353 351 355 356 351 352 352 348 345
108 106 103 104 106 112 109 106 108 109 109 106 103 93 86 89 91 94 93 90 89 87 85 90 92 83 72 69 71 81 69 3 322 324 342 346 350 348 343 337 335 335 332
115 115 114 112 109 110 112 112 113 117 118 114 109 108 109 109 108 108 105 97 95 95 95 98 107 114 105 84 62 49 25 329 319 322 330 332 333 330 331 327 323 322 319
117 118 118 119 119 117 116 116 117 117 118 120 121 122 120 116 115 114 113 110 111 111 115 116 117 120 119 111 97 29 352 357 355 340 323 323 328 327 324 319 320 323 327
117 120 122 122 121 123 125 127 126 124 125 129 130 132 131 128 129 128 126 124 125 128 132 137 143 142 139 131 99 31 1 356 354 352 347 340 343 335 334 327 329 331 334